Showing default

STELLA, 22824

Orbit data source: Space-Track

STELLA, 22824 is a payload satellite owned by CNES (FR) in SSO that was launched on Sun, 26 Sep 1993 UTC via an ARIANE 40 launch vehicle from the French Guiana (FRGUI). Payload-class satellites include a variety of spacecraft equipped with specific instruments for various scientific and technological missions. These include communications satellites like Starlink; space stations such as the ISS; scientific satellites like the Hubble; Earth observation satellites from companies like Planet Labs, Umbra, and HawkEye 360; GPS; miniature CubeSats for education and research; and military/defense satellites.

Loading next visibility...
Identifier
22824, 1993-061B
Orbit
SSO
Country
Flag of FRFR
Related business
Manufacturer
CNES
Mission
Operational Civil Geodetic
Bus & Motor
STARLETTE, Unknown motor
Mass
48 kg wet, 48 kg dry
Launch date (UTC)
1993-09-26 (32 years ago)
Launch vehicle
ARIANE 40
Launch site
French Guiana (FRGUI)
Object type
Payload
Rocket body
Debris
Shape & HBR
Sphere, 0.1 m
Radar Cross Section
0.045 m², Medium (>0.1 m² and < 1m²)

Expand to show TLE details & history
Last TLE update: 5 hours ago

TLE from 5 hours ago
0 STELLA
1 22824U 93061B   26036.12934243 -.00000024  00000-0  85029-5 0  9998
2 22824  98.7914  99.8034 0005309 259.7426 131.0289 14.27466483685933
Epoch: 2026-02-05T03:06Z
TLE epoch observation values (Epoch: 2026-02-05T03:06:15.185Z)
Latitude
30.47052°
Longitude
-87.23874°
Altitude
806.548 km
Speed
7.452 km/s
True Right ascension
06h 18m 26s
True Declination
30° 19' 17"
Sunlit
Object was in full shadow at epoch
Visualization orbit readout
Latitude
Unknown
Longitude
Unknown
Altitude
Unknown
Speed
Unknown
Apparent Right ascension
Unknown
Apparent Declination
Unknown
Sunlit
N/A
Visualization observer readout
Local Sidereal Time
09:45:19
Azimuth
Unknown
Elevation
Unknown
Doppler factor
Unknown
Orbital elements
Apogee altitude
801.174 km
Perigee altitude
793.555 km
Semi-major axis
7,175.501 km
Eccentricity
0.00053
Inclination
98.7914°
RAAN
99.8034°
Arg. of periapsis
259.7426°
True anomaly
131.07477°
Mean anomaly
131.0289°
Eccentric anomaly
131.05184°
Mean motion
3.57079 °/min
Orbital period
100.82 mins
BSTAR
0.0000085029
Loading maneuver chart data...
Computing Atmospheric mass density...
Loading historical data...
Loading historical data...
Loading historical data...
Loading historical data...
Loading historical data...
Loading historical data...
Loading historical data...

Documentation

Showing up to 5 results
|